Погода в Гуммерсбахе

Германия     51°01′25″N   7°33′13″E
темп.,
°C
ветер,
м/с
пор.,
м/с
влажн.,
%
обл.,
%
осадки,
мм/ч
давл.,
гПа
погр.,
м
16 мая, вс
вс1623:00+7ююз28989 0.9 1003266
02:00+5ююз289816 0.9 1004259
05:00+4ю229815 0.0 100439
08:00+7ююз389424 0.0 1004395
11:00+10юз4791100 0.8 1003981
14:00+11юз5891100 2.5 10031047
17:00+13зюз466786 1.0 10011415
20:00+10зюз25949 2.6 1001183
17 мая, пн
пн1723:00+6ююз11959 0.1 100210
02:00+5ююв1198100 0.1 100220
05:00+6ю2799100 0.9 1003280
08:00+8юз389799 2.4 1004659
11:00+8юз51096100 1.4 1005888
14:00+8ююз51197100 5.9 10061162
17:00+11зюз61193100 3.1 10051372
20:00+10з5119614 4.7 1007898
18 мая, вт
вт1823:00+6юз23100100 0.3 101078
02:00+6ю2210076 0.3 101067
05:00+7юз299999 0.3 1011490
08:00+7ююз3897100 0.4 1011621
11:00+8юз3897100 0.5 1012765
14:00+8ююз4997100 2.4 10131011
17:00+9зсз599353 1.6 1013823
20:00+9зсз368465 2.2 1014688
19 мая, ср
ср1923:00+5зюз11987 0.0 101610
02:00+4ююз119940 0.0 101710
05:00+4ю11100100 0.0 101725
08:00+7юз259572 0.0 1017407
11:00+10зюз347685 0.3 1016982
14:00+10зюз458593 1.1 1016800
17:00+11юз226795 0.2 1016997
20:00+10з127789 0.2 101756
20 мая, чт
чт2023:00+6ссз119696 0.3 101910
02:00+6зсз25986 0.3 1021116
05:00+3зсз1210096 0.0 102228
08:00+6з2697100 0.0 1024453
11:00+7з369598 0.2 1025519
14:00+11з47717 0.8 10241180
17:00+12сз58758 1.2 10221169
20:00+11зсз486524 1.4 1022928